Terminal Aerodrome Forecast
Issued by NWS Portland, OR

Home | Current Version | Previous Version | Text Only | Print | Product List | Glossary On
Versions: 1 2 3 4 5 6 7 8 9 10 11 12 13 14 15 16 17 18 19 20 21 22 23 24 25 26 27 28 29 30 31
000
FTUS46 KPQR 250707 AAA
TAFPDX
TAF AMD
KPDX 250707Z 2507/2606 12004KT P6SM SCT040 BKN080
     FM251600 VRB03KT P6SM -SHRA SCT020 OVC040
     FM252300 29006KT P6SM -SHRA SCT025 BKN040=

USA.gov is the U.S. government's official web portal to all federal, state and local government web resources and services.